Tracy, MN

10:04 PM CST on February 17, 2018 (GMT -0600)
Tracy

Weather History for KTKC - February, 2014

Change the Weather History Date:

Wednesday, February 26, 2014

  Actual Average (KMML) Record (KMML)
Temperature  
Mean Temperature 9 °F -  
Max Temperature 23 °F 34 °F 56 °F (1976)
Min Temperature -5 °F 16 °F -9 °F (2015)
Degree Days  
Heating Degree Days 56    
Moisture  
Dew Point -2 °F    
Average Humidity 65    
Maximum Humidity 77    
Minimum Humidity 52    
Precipitation  
Precipitation 0.00 in - - ()
Sea Level Pressure  
Sea Level Pressure 29.97 in    
Wind  
Wind Speed 12 mph (West)    
Max Wind Speed 32 mph    
Max Gust Speed 39 mph    
Visibility 10 miles    
Events Snow    
Averages and records for this station are not official NWS values.
T = Trace of Precipitation, MM = Missing Value Source: NWS Daily Summary

Daily Weather History Graph

Daily Weather History Graph

Search for Another Location

Airport or City:

Trip Planner

Search our weather history database for the weather conditions in past years. The results will help you decide how hot, cold, wet, or windy it might be!

Date:

Astronomy

Feb. 26, 2014 Rise Set
Actual Time 7:04 AM CST 6:06 PM CST
Civil Twilight 6:35 AM CST 6:35 PM CST
Nautical Twilight 6:01 AM CST 7:09 PM CST
Astronomical Twilight 5:28 AM CST 7:43 PM CST
Moon 4:56 AM CST (2/26) 3:18 PM CST (2/26)
Length of Visible Light 12h 00m
Length of Day
11h 02m
Waning Crescent, 10% of the Moon is Illuminated
Feb 26
Waning Crescent
Mar 1
New
Mar 8
First Quarter
Mar 16
Full
Mar 23
Last Quarter

Hourly Weather History & Observations

Time (CST) Temp. Windchill Dew Point Humidity Pressure Visibility Wind Dir Wind Speed Gust Speed Precip Events Conditions
12:18 AM -2.6 °F -10.8 °F -9.4 °F 73% 30.37 in 10.0 mi West 3.5 mph - N/A   Clear
12:37 AM -3.1 °F -13.5 °F -9.4 °F 74% 30.36 in 10.0 mi West 4.6 mph - N/A   Clear
12:57 AM -3.5 °F - -9.6 °F 75% 30.35 in 10.0 mi Calm Calm - N/A   Clear
1:18 AM -3.6 °F - -9.8 °F 75% 30.34 in 10.0 mi Calm Calm - N/A   Clear
1:38 AM -3.6 °F - -9.6 °F 76% 30.33 in 10.0 mi Calm Calm - N/A   Clear
1:58 AM -4.0 °F - -9.8 °F 76% 30.32 in 10.0 mi Calm Calm - N/A   Clear
2:17 AM -4.0 °F -14.6 °F -9.6 °F 77% 30.31 in 10.0 mi West 4.6 mph - N/A   Clear
2:38 AM -4.2 °F -18.0 °F -10.3 °F 75% 30.30 in 10.0 mi West 6.9 mph - N/A   Clear
2:57 AM -3.8 °F -14.4 °F -10.3 °F 74% 30.28 in 10.0 mi West 4.6 mph - N/A   Clear
3:17 AM -4.0 °F -16.3 °F -10.5 °F 74% 30.27 in 10.0 mi West 5.8 mph - N/A   Clear
3:38 AM -4.2 °F -18.0 °F -11.2 °F 72% 30.26 in 10.0 mi West 6.9 mph - N/A   Clear
3:58 AM -4.4 °F - -11.2 °F 72% 30.23 in 10.0 mi Calm Calm - N/A   Clear
4:17 AM -5.8 °F - -12.3 °F 74% 30.21 in 10.0 mi Calm Calm - N/A   Clear
4:38 AM -5.8 °F -22.4 °F -12.5 °F 73% 30.19 in 10.0 mi SW 9.2 mph - N/A   Clear
4:58 AM -4.5 °F -25.9 °F -12.1 °F 70% 30.18 in 10.0 mi WSW 16.1 mph - N/A   Clear
5:17 AM -4.2 °F -26.1 °F -11.2 °F 72% 30.16 in 10.0 mi WSW 17.3 mph - N/A   Clear
5:38 AM -4.2 °F -22.3 °F -11.4 °F 71% 30.15 in 10.0 mi WSW 11.5 mph - N/A   Clear
5:57 AM -4.0 °F -24.5 °F -11.4 °F 71% 30.14 in 10.0 mi WSW 15.0 mph - N/A   Clear
6:18 AM -4.9 °F -24.1 °F -11.9 °F 72% 30.13 in 10.0 mi WSW 12.7 mph - N/A   Clear
6:37 AM -4.9 °F -23.2 °F -11.7 °F 72% 30.11 in 10.0 mi WSW 11.5 mph - N/A   Clear
6:57 AM -4.4 °F -23.4 °F -11.4 °F 72% 30.09 in 10.0 mi WSW 12.7 mph - N/A   Clear
7:17 AM -3.6 °F -22.5 °F -10.5 °F 72% 30.08 in 10.0 mi WSW 12.7 mph - N/A   Clear
7:38 AM -1.5 °F -21.9 °F -8.5 °F 72% 30.06 in 10.0 mi WSW 16.1 mph 20.7 mph N/A   Clear
7:57 AM -0.6 °F -20.8 °F -8.0 °F 71% 30.05 in 10.0 mi WSW 16.1 mph 20.7 mph N/A   Clear
8:18 AM 1.4 °F -17.6 °F -6.3 °F 70% 30.04 in 10.0 mi WSW 15.0 mph 24.2 mph N/A   Clear
8:37 AM 3.0 °F -18.3 °F -5.3 °F 68% 30.02 in 10.0 mi WSW 20.7 mph 24.2 mph N/A   Clear
8:57 AM 4.6 °F -14.6 °F -4.2 °F 67% 30.00 in 10.0 mi WSW 17.3 mph 25.3 mph N/A   Clear
9:18 AM 6.1 °F -12.2 °F -2.9 °F 67% 29.99 in 10.0 mi WSW 16.1 mph 25.3 mph N/A   Clear
9:38 AM 6.6 °F -12.1 °F -2.6 °F 66% 29.97 in 10.0 mi WSW 17.3 mph 25.3 mph N/A   Clear
9:57 AM 7.7 °F -10.1 °F -1.5 °F 66% 29.96 in 10.0 mi WSW 16.1 mph 21.9 mph N/A   Clear
10:17 AM 8.6 °F -10.0 °F -0.6 °F 66% 29.94 in 10.0 mi WSW 18.4 mph 25.3 mph N/A   Clear
10:38 AM 10.0 °F -6.5 °F 0.3 °F 65% 29.92 in 10.0 mi WSW 15.0 mph 28.8 mph N/A   Clear
10:57 AM 11.5 °F -5.2 °F 1.4 °F 64% 29.89 in 10.0 mi WSW 16.1 mph 28.8 mph N/A   Clear
11:17 AM 13.3 °F -3.9 °F 3.4 °F 65% 29.87 in 10.0 mi WSW 18.4 mph 27.6 mph N/A   Clear
11:37 AM 14.7 °F -4.1 °F 4.3 °F 63% 29.86 in 10.0 mi WSW 24.2 mph 32.2 mph N/A   Clear
11:58 AM 16.0 °F -2.8 °F 5.7 °F 64% 29.82 in 7.0 mi WSW 25.3 mph 35.7 mph N/A   Clear
12:18 PM 17.4 °F 0.2 °F 6.6 °F 63% 29.81 in 10.0 mi WSW 21.9 mph 35.7 mph N/A   Clear
12:38 PM 19.0 °F 4.0 °F 6.8 °F 59% 29.79 in 10.0 mi WSW 17.3 mph 28.8 mph N/A   Clear
12:58 PM 20.3 °F 4.4 °F 6.8 °F 56% 29.78 in 10.0 mi WSW 20.7 mph 29.9 mph N/A   Clear
1:17 PM 21.2 °F 6.4 °F 7.7 °F 56% 29.76 in 10.0 mi West 18.4 mph 28.8 mph N/A   Clear
1:38 PM 21.9 °F 7.8 °F 8.4 °F 56% 29.73 in 10.0 mi West 17.3 mph 28.8 mph N/A   Clear
1:58 PM 22.5 °F 6.5 °F 8.8 °F 56% 29.71 in 10.0 mi West 23.0 mph 33.4 mph N/A   Clear
2:17 PM 22.1 °F 6.0 °F 8.8 °F 57% 29.69 in 10.0 mi West 23.0 mph 35.7 mph N/A   Clear
2:37 PM 22.8 °F 7.4 °F 10.0 °F 58% 29.71 in 10.0 mi West 21.9 mph 33.4 mph N/A   Clear
2:58 PM 23.7 °F 9.7 °F 9.7 °F 55% 29.71 in 10.0 mi West 18.4 mph 25.3 mph N/A   Clear
3:18 PM 23.5 °F 9.4 °F 9.1 °F 54% 29.71 in 10.0 mi West 18.4 mph 29.9 mph N/A   Clear
3:37 PM 23.4 °F 9.6 °F 8.8 °F 54% 29.72 in 10.0 mi WNW 17.3 mph 31.1 mph N/A   Clear
3:57 PM 23.9 °F 8.1 °F 8.8 °F 53% 29.72 in 10.0 mi WNW 24.2 mph 33.4 mph N/A   Clear
4:17 PM 23.5 °F 8.7 °F 8.2 °F 52% 29.72 in 10.0 mi WNW 20.7 mph 29.9 mph N/A   Clear
4:37 PM 23.9 °F 6.1 °F 8.8 °F 53% 29.73 in 10.0 mi NW 32.2 mph 39.1 mph N/A   Clear
4:58 PM 23.9 °F 6.9 °F 9.7 °F 55% 29.73 in 10.0 mi NW 28.8 mph 35.7 mph N/A   Clear
5:18 PM 23.2 °F 6.2 °F 7.7 °F 52% 29.74 in 10.0 mi NW 27.6 mph 36.8 mph N/A   Clear
5:37 PM 22.1 °F 4.8 °F 7.2 °F 53% 29.75 in 10.0 mi NW 27.6 mph 33.4 mph N/A   Clear
5:58 PM 21.4 °F 5.5 °F 7.7 °F 56% 29.76 in 10.0 mi NW 21.9 mph 32.2 mph N/A   Clear
6:17 PM 20.3 °F 3.3 °F 7.7 °F 58% 29.77 in 10.0 mi NW 24.2 mph 32.2 mph N/A   Clear
6:38 PM 19.2 °F 4.3 °F 7.3 °F 60% 29.80 in 10.0 mi NNW 17.3 mph 29.9 mph N/A   Clear
6:58 PM 17.4 °F -0.5 °F 9.0 °F 69% 29.81 in 7.0 mi NNW 24.2 mph 36.8 mph N/A   Scattered Clouds
7:18 PM 16.0 °F -0.4 °F 6.4 °F 66% 29.83 in 10.0 mi NNW 18.4 mph 27.6 mph N/A   Clear
7:38 PM 14.4 °F -3.4 °F 4.3 °F 64% 29.85 in 10.0 mi NNW 20.7 mph 32.2 mph N/A   Clear
7:58 PM 13.1 °F -4.6 °F 2.7 °F 63% 29.86 in 10.0 mi NNW 19.6 mph 29.9 mph N/A   Clear
8:17 PM 12.2 °F -4.3 °F 2.5 °F 65% 29.87 in 10.0 mi NNW 16.1 mph - N/A   Clear
8:37 PM 11.8 °F -7.6 °F 1.0 °F 62% 29.88 in 10.0 mi NNW 23.0 mph 33.4 mph N/A   Clear
8:57 PM 10.9 °F -7.9 °F 1.2 °F 65% 29.90 in 10.0 mi NNW 20.7 mph 26.5 mph N/A   Clear
9:17 PM 8.6 °F -11.9 °F 2.8 °F 77% 29.93 in 4.0 mi North 23.0 mph 33.4 mph N/A Snow Light Snow
9:38 PM 5.9 °F -15.5 °F -1.3 °F 72% 29.94 in 10.0 mi North 23.0 mph 28.8 mph N/A   Scattered Clouds
9:57 PM 5.0 °F -15.7 °F -3.3 °F 69% 29.95 in 10.0 mi NNW 20.7 mph 27.6 mph N/A   Clear
10:18 PM 4.1 °F -17.4 °F -5.1 °F 66% 29.96 in 10.0 mi North 21.9 mph 32.2 mph N/A   Clear
10:37 PM 3.4 °F -18.3 °F -7.2 °F 61% 29.96 in 10.0 mi North 21.9 mph 35.7 mph N/A   Clear
10:58 PM 2.3 °F -20.2 °F -10.1 °F 56% 29.98 in 10.0 mi NNW 23.0 mph 32.2 mph N/A   Clear
11:18 PM 1.4 °F -20.5 °F -9.6 °F 60% 29.98 in 10.0 mi NNW 20.7 mph 31.1 mph N/A   Clear
11:37 PM 0.3 °F -22.4 °F -8.7 °F 66% 30.00 in 10.0 mi North 21.9 mph 28.8 mph N/A   Clear
11:58 PM -0.8 °F -22.2 °F -8.9 °F 69% 30.01 in 10.0 mi NNW 18.4 mph 24.2 mph N/A   Clear